Simultaneous Nadir Overpasses (SNOs) Predictions

Prediction of SNOs over PacNW region [( 10.00, 139.50) to ( 22.70, 165.60)] between NOAA-19 and NPP Satellites:

Table of predicted SNOs over PacNW region for the next 30.0 days since TLE Epoch: 7/14/2012
Index Date (NOAA-19) Time (NOAA-19) NOAA-19 Lat,Lon Date (NPP) Time (NPP) NPP Lat,Lon Distance(km) Time Diff (sec)
1 07/15/2012 16:11:14 22.61, 144.09 07/15/2012 16:12:35 23.21, 141.43 280.78 81
2 07/16/2012 03:27:43 22.65, 147.56 07/16/2012 03:25:18 22.29, 145.92 173.20 145
3 07/27/2012 15:43:47 22.59, 150.97 07/27/2012 15:47:13 23.30, 147.77 337.25 206
4 07/28/2012 03:00:14 22.66, 154.44 07/28/2012 02:59:55 22.20, 152.26 230.33 19
5 07/28/2012 15:36:34 10.03, 150.65 07/28/2012 15:32:57 6.49, 148.56 456.08 217
6 08/09/2012 02:30:59 16.51, 162.85 08/09/2012 02:32:45 15.87, 160.12 301.13 106
7 08/09/2012<
